Weather History for Tupelo, MS

Change the Weather History Date:

Wednesday, October 10, 2012

  Actual Average Record
Temperature  
Mean Temperature 59 °F 65 °F  
Max Temperature 70 °F 77 °F 95 °F (1938)
Min Temperature 47 °F 53 °F 32 °F (2000)
Degree Days  
Heating Degree Days 6 3  
Month to date heating degree days 47 23  
Since 1 July heating degree days 58 35  
Cooling Degree Days 0 3  
Month to date cooling degree days 13 38  
Year to date cooling degree days 2173 1996  
Growing Degree Days 10 (Base 50)    
Moisture  
Dew Point 53 °F    
Average Humidity 75    
Maximum Humidity 93    
Minimum Humidity 57    
Precipitation  
Precipitation 0.00 in 0.14 in 2.11 in (2002)
Month to date precipitation 1.56 1.34  
Year to date precipitation 40.02 41.25  
Snow  
Snow 0.00 in 0.00 in 0.00 in (2002)
Month to date snowfall 0.0 0.0  
Since 1 July snowfall 0.0 0.0  
Since 1 September snowfall 0.0 0.0  
Snow Depth 0.00 in    
Sea Level Pressure  
Sea Level Pressure 30.16 in    
Wind  
Wind Speed 5 mph (NNE)    
Max Wind Speed 16 mph    
Max Gust Speed 22 mph    
Visibility 10 miles    
Events      
T = Trace of Precipitation, MM = Missing Value Source: NWS Daily Summary

Daily Weather History Graph

Daily Weather History Graph

Search for Another Location

Airport:

Trip Planner

Search our weather history database for the weather conditions in past years. The results will help you decide how hot, cold, wet, or windy it might be!

Date:

Astronomy

Oct. 10, 2012 Rise Set
Actual Time 6:56 AM CDT 6:26 PM CDT
Civil Twilight 6:31 AM CDT 6:51 PM CDT
Nautical Twilight 6:02 AM CDT 7:20 PM CDT
Astronomical Twilight 5:33 AM CDT 7:49 PM CDT
Moon 1:46 AM CDT (10/10) 3:17 PM CDT (10/10)
Length of Visible Light 12h 19m
Length of Day
11h 29m
Waning Crescent, 27% of the Moon is Illuminated
Oct 10
Waning Crescent
Oct 15
New
Oct 21
First Quarter
Oct 29
Full
Nov 6
Last Quarter

Hourly Weather History & Observations

Time (CDT) Temp. Dew Point Humidity Pressure Visibility Wind Dir Wind Speed Gust Speed Precip Events Conditions
12:53 AM 55.0 °F 52.0 °F 89% 30.07 in 10.0 mi SW 3.5 mph - N/A   Overcast
1:53 AM 55.9 °F 52.0 °F 87% 30.06 in 10.0 mi SSW 6.9 mph - N/A   Overcast
2:53 AM 57.0 °F 53.1 °F 87% 30.08 in 10.0 mi Calm Calm - N/A   Overcast
3:53 AM 57.0 °F 53.1 °F 87% 30.09 in 10.0 mi NE 3.5 mph - N/A   Overcast
4:53 AM 57.9 °F 53.1 °F 84% 30.09 in 10.0 mi Calm Calm - N/A   Overcast
5:53 AM 57.0 °F 53.1 °F 87% 30.11 in 10.0 mi Calm Calm - N/A   Mostly Cloudy
6:53 AM 55.9 °F 54.0 °F 93% 30.12 in 10.0 mi SSW 3.5 mph - N/A   Overcast
7:53 AM 57.9 °F 55.0 °F 90% 30.14 in 10.0 mi SSW 3.5 mph - N/A   Overcast
8:53 AM 61.0 °F 55.0 °F 81% 30.16 in 10.0 mi Calm Calm - N/A   Mostly Cloudy
9:31 AM 64.4 °F 55.4 °F 73% 30.17 in 10.0 mi Calm Calm - N/A   Mostly Cloudy
9:39 AM 64.4 °F 55.4 °F 73% 30.17 in 10.0 mi Calm Calm - N/A   Overcast
9:53 AM 66.0 °F 55.9 °F 70% 30.17 in 10.0 mi Variable 3.5 mph - N/A   Overcast
10:37 AM 66.2 °F 55.4 °F 68% 30.19 in 10.0 mi North 8.1 mph - N/A   Mostly Cloudy
10:46 AM 66.2 °F 55.4 °F 68% 30.19 in 10.0 mi NNE 9.2 mph - N/A   Mostly Cloudy
10:53 AM 68.0 °F 55.9 °F 65% 30.19 in 10.0 mi NNW 6.9 mph - N/A   Mostly Cloudy
11:53 AM 69.1 °F 57.0 °F 65% 30.18 in 10.0 mi NNE 11.5 mph - N/A   Mostly Cloudy
12:53 PM 66.9 °F 55.9 °F 68% 30.19 in 10.0 mi North 15.0 mph 20.7 mph N/A   Overcast
1:14 PM 66.2 °F 55.4 °F 68% 30.19 in 10.0 mi NNE 13.8 mph - N/A   Overcast
1:53 PM 68.0 °F 55.9 °F 65% 30.17 in 10.0 mi North 12.7 mph - N/A   Partly Cloudy
2:53 PM 66.9 °F 55.0 °F 66% 30.17 in 10.0 mi NNE 6.9 mph - N/A   Clear
3:53 PM 69.1 °F 54.0 °F 58% 30.16 in 10.0 mi North 8.1 mph - N/A   Clear
4:53 PM 68.0 °F 54.0 °F 61% 30.16 in 10.0 mi North 5.8 mph - N/A   Mostly Cloudy
5:53 PM 66.0 °F 52.0 °F 60% 30.16 in 10.0 mi NNE 8.1 mph - N/A   Mostly Cloudy
6:53 PM 61.0 °F 50.0 °F 67% 30.18 in 10.0 mi NNE 4.6 mph - N/A   Clear
7:53 PM 57.0 °F 48.9 °F 74% 30.19 in 10.0 mi NNE 4.6 mph - N/A   Clear
8:53 PM 55.0 °F 46.9 °F 74% 30.21 in 10.0 mi NNE 3.5 mph - N/A   Clear
9:53 PM 52.0 °F 45.0 °F 77% 30.23 in 10.0 mi NNE 4.6 mph - N/A   Clear
10:53 PM 50.0 °F 45.0 °F 83% 30.22 in 10.0 mi NE 5.8 mph - N/A   Clear
11:53 PM 48.9 °F 45.0 °F 86% 30.22 in 10.0 mi NE 4.6 mph - N/A   Clear